www.pogodaiklimat.ru

Погода и климат >> Архив погоды >> Россия >> Якутия >> Саскылах


АРХИВ ПОГОДЫ в Саскылахе

Время (UTC), дата Ветер
(напр.,м/с)
 
Видим.   Явления Облачность Т
(С)
Тd
(С)
f
(%)
Тe
(С)
Тes
(С)
Комфортность P
(гПа)
Po
(гПа)
Тmin
(С)
Tmax
(С)
R
(мм)
R24
(мм)
S
(см)
18 14.07 ЮЗ 1 н/о н/о +5.6 +1.9 77 +5 +5 1017.6 1015.6
21 14.07 СЗ 4 50 км ясно +7.7 +3.2 73 +5 +5 1018.5 1016.2
00 15.07 СЗ 4 50 км ясно +8.9 +2.2 63 +6 +9 1019.0 1016.7 +5.5
03 15.07 З 5 50 км 4/0
[Ac cast]
+11.7 +2.1 52 +9 +13 1018.7 1016.4
06 15.07 СЗ 4 50 км ясно +13.8 +3.2 49 +13 +18 1018.2 1015.9
09 15.07 З 5 50 км ясно +14.9 +2.8 44 +14 +16 1017.6 1015.3
12 15.07 СЗ 4 50 км ясно +14.9 +3.4 46 +14 +15 1017.5 1015.2 +14.9
15 15.07 СВ 1 50 км ясно +11.7 +4.8 63 +12 +12 1016.6 1014.6
18 15.07 штиль 0 50 км ясно +7.6 +4.6 81 +7 +7 1016.7 1014.4
21 15.07 ЮВ 1 50 км ясно +10.0 +5.4 73 +10 +11 1015.5 1013.2
00 16.07 В 1 50 км 10/0
[Ac und]
+12.9 +5.6 61 +13 +15 1014.3 1012.0 +7.5
03 16.07 ЮВ 4 50 км 10/0
[Ac und]
+13.4 +7.8 69 +12 +14 1012.5 1010.5
06 16.07 ЮВ 3 50 км в посл. час дождь 10/0
[As op]
+13.9 +7.6 66 +13 +14 1012.4 1010.2
09 16.07 Ю 3 50 км в посл. час дождь 10/6 900 м
[Cb cap As op]
+13.1 +10.0 81 +12 +12 1011.7 1009.5
12 16.07 штиль 0 50 км {дождь} 10/0
[As op]
+13.1 +10.4 84 +13 +13 1010.7 1008.5 +13.9 0.9
15 16.07 СВ 4 50 км 10/0
[Ac und]
+12.2 +7.7 74 +10 +10 1010.4 1008.2
18 16.07 СВ 3 50 км 10/0
[Ac und]
+9.0 +6.2 83 +7 +7 1011.6 1009.4
21 16.07 С 4
{10}
н/о н/о +5.8 +4.2 89 +2 +2 1014.5 1012.6
00 17.07 С 6 50 км 10/10 360 м
[St]
+5.7 +3.6 86 +1 +1 1017.2 1014.9 +5.6
03 17.07 С 7 50 км 8/8 630 м
[Sc]
+8.1 +3.1 71 +4 +4 1019.1 1016.8
06 17.07 С 7 50 км ясно +10.8 +2.6 57 +8 +10 1020.6 1018.4
09 17.07 СЗ 4 50 км ясно +11.8 +1.6 50 +10 +13 1021.7 1019.5
12 17.07 СЗ 7 50 км ясно +10.1 +2.5 59 +7 +7 1023.3 1021.1 +11.8
15 17.07 СЗ 6 50 км ясно +6.3 +1.8 73 +2 +2 1024.4 1022.1
18 17.07 С 2
{10}
1000 м дымка 10/10 240 м
[St]
+2.6 +1.7 94 -1 -1 1025.8 1023.8
21 17.07 С 3 50 км 10/10 240 м
[St]
+2.6 +1.3 91 -2 -2 1025.9 1023.6
00 18.07 С 4 50 км 10/10 300 м
[Sc]
+4.6 +2.3 85 0 0 1028.3 1026.0 +2.5
03 18.07 С 4 50 км ясно +10.0 +1.5 55 +8 +13 1028.6 1026.3
06 18.07 С 6 50 км ясно +14.7 +2.4 43 +13 +16 1028.4 1026.1
09 18.07 СЗ 4 50 км ясно +16.4 +3.2 41 +16 +19 1027.9 1025.6
12 18.07 С 4
{10}
н/о н/о +14.3 +5.1 54 +13 +13 1027.6 1026.1 +16.6
15 18.07 СЗ 2 50 км 8/0
[Ac trans]
+10.0 +5.0 71 +9 +9 1028.7 1026.4
18 18.07 СЗ 1 50 км 8/0
[Ac trans]
+7.3 +4.0 80 +6 +7 1028.5 1026.2
21 18.07 СЗ 1 50 км 4/0
[Ac trans]
+9.2 +4.9 74 +9 +10 1028.9 1026.6
00 19.07 СЗ 4 50 км ясно +15.5 +5.9 53 +15 +18 1028.3 1026.0 +7.2
03 19.07 СЗ 6 50 км 6/6 1200 м
[Cu hum]
+18.6 +4.2 38 +18 +20 1027.1 1024.9
06 19.07 СЗ 5 50 км 6/6 1200 м
[Cu hum]
+19.9 +3.2 33 +20 +22 1026.2 1024.0
09 19.07 СЗ 5 50 км 4/4 1200 м
[Cu hum]
+20.6 +3.1 31 +21 +22 комфорт 1025.5 1023.3
12 19.07 СЗ 1 50 км ясно +18.6 +5.1 41 +20 +21 1024.8 1022.6 +20.6
15 19.07 З 2 50 км ясно +14.5 +7.8 64 +14 +14 1023.6 1021.7
18 19.07 штиль 0 50 км ясно +10.3 +6.7 78 +10 +10 1023.3 1021.0
21 19.07 З 2 50 км ясно +14.3 +6.0 57 +14 +14 1021.7 1019.8
00 20.07 ЮЗ 6 50 км ясно +19.1 +4.4 38 +19 +21 1020.6 1018.4 +10.2
03 20.07 З 6-11
{12}
н/о н/о +20.8 +5.1 36 +21 +21 комфорт 1018.6 1016.7
06 20.07 З 5 50 км 3/0
[Ci fib]
+23.8 +5.4 30 +24 +28 комфорт 1017.1 1014.9
09 20.07 З 4 50 км 8/0
[Cs]
+23.4 +9.1 40 +25 +27 комфорт 1016.4 1014.2
12 20.07 З 4 50 км 10/0
[Ac und]
+23.0 +10.0 44 +25 +25 комфорт 1015.3 1013.2 +23.8
15 20.07 ЮЗ 2 50 км 10/0
[Ac und]
+17.9 +11.4 66 +18 +18 1015.5 1013.3
18 20.07 СЗ 4 50 км 10/0
[Ac und]
+16.9 +11.6 71 +16 +16 1015.6 1013.4
21 20.07 СЗ 2 50 км 8/0
[Ac As]
+15.8 +9.6 67 +16 +16 1016.6 1014.4
00 21.07 СЗ 4 50 км ясно +16.9 +6.5 50 +16 +19 1017.7 1015.5 +15.7
03 21.07 СЗ 4 50 км ясно +19.3 +2.9 34 +20 +25 1018.3 1016.1
06 21.07 СЗ 1 50 км ясно +21.0 +1.2 27 +22 +31 комфорт 1018.9 1016.7
09 21.07 В 5 50 км ясно +20.6 +6.6 40 +22 +22 комфорт 1018.9 1017.0
12 21.07 В 4 50 км ясно +16.6 +4.4 44 +16 +17 1020.0 1017.8 +21.0

 

Местоположение метеостанции Саскылах (Якутия, Россия): широта 71.97 долгота 114.00 высота над уровнем моря 17 м.

В архиве по умолчанию представлена погода в Саскылахе за последнюю неделю. Архивные данные за месяц целиком и за предыдущие месяцы, начиная с января 2011 года, Вы можете получить, выбрав интересующий диапазон дат из раскрывающегося списка и нажав кнопку "Ввод!".


*Определитесь, кто Вы:
робот инопланетянин человек

Внимание! Время в таблицах - всемирное. Для получения местного времени необходимо прибавить поправку, которая равна 9 ч.

Смотрите также архив погоды в соседних городах и на ближайших метеорологических станциях:

Погода в Анабаре (Якутия, Россия) (140 км)
Погода в Джалинде (Якутия, Россия) (205 км)
Погода на Усть-Оленеке (Якутия, Россия) (225 км)
Погода на Острове Преображения (Якутия, Россия) (302 км)
Погода в Тюмяти (Якутия, Россия) (327 км)
Погода в Оленеке (Якутия, Россия) (391 км)
Погода в Хатанге (Красноярский край, Россия) (396 км)
Погода в Сухане (Якутия, Россия) (406 км)
Погода на Столб Острове (Якутия, Россия) (421 км)
Погода в Кюсюре (Якутия, Россия) (497 км)

Пояснения к столбцам:

Ветер - указаны скорость ветра в м/с - средняя за 10 мин, порывы в срок и между сроками (в фигурных скобках) и направление, откуда дует ветер: С - северный, СВ - северо-восточный, В - восточный, ЮВ - юго-восточный, Ю - южный, ЮЗ - юго-западный, З - западный, СЗ - северо-западный.
Видимость - горизонтальная дальность видимости в метрах или километрах. При видимости от 1 до 10 км при отсутствии осадков обычно наблюдается дымка, при ухудшении видимости до 1 км и менее - туман. В сухую погоду видимость может ухудшаться дымом, пылью или мглою.
Явления - указаны атмосферные явления, наблюдавшиеся в срок или в последний час перед сроком; фигурными скобками обозначены явления, наблюдавшиеся между сроками (за 1-3 часа до срока); квадратными скобками обозначены град или гололедные отложения с указанием их диаметра в мм.
Облачность - указаны через наклонную черту общая и нижняя облачность в баллах и высота нижней границы облаков в метрах; квадратными скобками обозначены формы облаков: Ci - перистые, Cs - перисто-слоистые, Cc - перисто-кучевые, Ac - высококучевые, As - высокослоистые, Sc - слоисто-кучевые, Ns - слоисто-дождевые, Cu - кучевые, Cb - кучево-дождевые. Подробнее классификацию облаков см. в Атласе облаков (PDF).
T - Температура воздуха - температура, измеренная на высоте 2 м над землей.
Td - Температура точки росы - температура, при понижении до которой содержащийся в воздухе водяной пар достигнет насыщения.
f - Относительная влажность воздуха - влажноcть воздуха, измеренная на высоте 2 м над землей.
Te - Эффективная температура - температура, которую ощущает одетый по сезону человек в тени. Характеристика душности погоды. При расчете учитывается влияние влажности воздуха и скорости ветра на теплоощущения человека.
Tes - Эффективная температура на солнце - температура, которую ощущает человек, с поправкой на солнечный нагрев. Характеристика знойности погоды. Зависит от высоты солнца над горизонтом, облачности и скорости ветра. Ночью, в пасмурную погоду, а также при ветре 12 м/с и более поправка равна нулю.
P - Атмосферное давление - приведенное к уровню моря атмосферное давление.
Po - Атмосферное давление - измеренное на уровне метеостанции атмосферное давление.
Tmin - Минимальная температура - минимум температуры воздуха на высоте 2 м над землей.
Tmax - Максимальная температура - максимум температуры воздуха на высоте 2 м над землей.
R - Количество осадков - Количество выпавших осадков за период времени, мм. При наведении курсора мыши на число - период времени, за который выпало указанное количество осадков.
R24 - Количество осадков - Количество выпавших осадков за 24 часа, мм.
S - Снежный покров - Высота снежного покрова, см. При наведении курсора мыши на число - состояние снежного покрова и степень покрытия местности в баллах.